EW2997 Weather Reports


time (UTC)temp
C
wind
direction
speed
KPH
gust
KPH
rain 1hr
cm
rain 24hr
cm
rain mn
cm
humidity
%
barometer
mb
20260507052441 11 53 6.4 6.4 0.00 0.00 0.00 79 1014.9
20260507045438 11 0 3.2 3.2 0.00 0.00 0.00 81 1014.9
20260507042435 11 18 3.2 3.2 0.00 0.00 0.00 81 1014.9
20260507035430 11 349 3.2 3.2 0.00 0.58 0.58 80 1015.6
20260507032425 12 10 3.2 3.2 0.00 0.58 0.58 78 1014.9
20260507025423 12 6 3.2 3.2 0.00 0.58 0.58 81 1015.2
20260507022423 12 9 3.2 3.2 0.00 0.58 0.58 79 1014.5
20260507015421 12 283 3.2 3.2 0.00 0.58 0.58 82 1014.9
20260507012419 12 10 4.8 4.8 0.00 0.58 0.58 83 1014.9
20260507005415 13 25 3.2 3.2 0.00 0.58 0.58 84 1014.9
20260507002410 13 347 3.2 3.2 0.00 0.58 0.58 83 1014.5
20260506235408 13 353 6.4 6.4 0.00 0.58 0.58 82 1013.9
20260506232406 14 354 6.4 6.4 0.00 0.58 0.58 81 1012.9
20260506225404 15 0 3.2 3.2 0.00 0.58 0.58 80 1012.9
20260506222401 15 337 4.8 4.8 0.00 0.58 0.58 80 1012.9
20260506215359 16 324 4.8 4.8 0.00 0.58 0.58 79 1012.5
20260506212358 16 328 8.0 8.0 0.00 0.58 0.58 81 1011.7
20260506205355 17 333 3.2 3.2 0.00 0.58 0.58 81 1011.4
20260506202353 17 323 3.2 3.2 0.00 0.58 0.58 88 1011.1
20260506195349 17 232 3.2 3.2 0.00 0.58 0.58 89 1010.7
20260506192347 17 234 1.6 1.6 0.00 0.58 0.58 91 1010.7
20260506185345 16 168 3.2 3.2 0.00 0.58 0.58 94 1011.1
20260506182344 16 192 3.2 3.2 0.00 0.58 0.58 94 1011.4
20260506175344 16 210 6.4 8.0 0.00 0.58 0.58 95 1011.4
20260506172343 16 222 3.2 3.2 0.00 0.58 0.58 93 1011.1
20260506165340 16 204 4.8 4.8 0.00 0.58 0.58 93 1011.1
20260506162337 16 234 4.8 4.8 0.00 0.58 0.58 91 1011.4
20260506155332 15 228 3.2 3.2 0.00 0.58 0.58 91 1011.1
20260506152328 16 324 6.4 8.0 0.00 0.58 0.58 91 1010.7
20260506145328 15 253 0.0 0.0 0.08 0.58 0.58 94 1011.1
20260506142324 14 23 3.2 3.2 0.05 0.56 0.56 95 1010.7
20260506135320 14 213 6.4 6.4 0.18 0.48 0.48 94 1011.4
20260506132318 14 204 6.4 6.4 0.03 0.33 0.33 93 1011.1
20260506125314 14 180 0.0 0.0 0.13 0.25 0.25 92 1011.4
20260506122310 15 237 6.4 6.4 0.05 0.18 0.18 89 1011.1
20260506115307 15 168 1.6 1.6 0.13 0.13 0.13 89 1011.4
20260506112305 15 114 0.0 0.0 0.10 0.10 0.10 87 1011.7
20260506105305 17 192 3.2 3.2 0.00 0.00 0.00 70 1011.1
20260506102259 18 260 4.8 4.8 0.00 0.00 0.00 58 1010.4
20260506095255 18 210 8.0 9.7 0.00 0.00 0.00 56 1009.7
20260506092251 18 182 4.8 4.8 0.00 0.00 0.00 55 1010.4
20260506085251 19 221 4.8 4.8 0.00 0.00 0.00 53 1010.4
20260506082248 19 150 4.8 4.8 0.00 0.00 0.00 52 1010.7
20260506072240 20 200 3.2 3.2 0.00 0.00 0.00 51 1010.7
20260506062235 20 222 4.8 4.8 0.00 0.00 0.00 50 1011.4